Green Bay, WI

5:03 AM CDT on May 27, 2017 (GMT -0500)
Austin Straubel International

Weather History for KGRB - March, 2014

Change the Weather History Date:

Monday, March 24, 2014

  Actual Average Record
Temperature  
Mean Temperature 22 °F 34 °F  
Max Temperature 31 °F 43 °F 72 °F (1910)
Min Temperature 12 °F 25 °F -4 °F (1974)
Degree Days  
Heating Degree Days 43 31  
Month to date heating degree days 1063 856  
Since 1 July heating degree days 7544 6696  
Cooling Degree Days 0 0  
Month to date cooling degree days 0 0  
Year to date cooling degree days 0 0  
Moisture  
Dew Point 15 °F    
Average Humidity 71    
Maximum Humidity 92    
Minimum Humidity 50    
Precipitation  
Precipitation 0.05 in 0.06 in 0.80 in (2009)
Month to date precipitation 0.41 1.38  
Year to date precipitation 3.20 3.62  
Snow  
Snow 1.20 in 0.20 in 6.00 in (2016)
Month to date snowfall 5.1 6.9  
Since 1 July snowfall 67.4 47.1  
Snow Depth 3.00 in    
Sea Level Pressure  
Sea Level Pressure 30.17 in    
Wind  
Wind Speed 10 mph (West)    
Max Wind Speed 22 mph    
Max Gust Speed 30 mph    
Visibility 8 miles    
Events Snow    
T = Trace of Precipitation, MM = Missing Value Source: NWS Daily Summary

Daily Weather History Graph

Daily Weather History Graph

Search for Another Location

Airport or City:

Trip Planner

Search our weather history database for the weather conditions in past years. The results will help you decide how hot, cold, wet, or windy it might be!

Date:

Astronomy

Mar. 24, 2014 Rise Set
Actual Time 6:48 AM CDT 7:09 PM CDT
Civil Twilight 6:19 AM CDT 7:39 PM CDT
Nautical Twilight 5:44 AM CDT 8:13 PM CDT
Astronomical Twilight 5:09 AM CDT 8:48 PM CDT
Moon 2:31 AM CDT (3/24) 12:22 PM CDT (3/24)
Length of Visible Light 13h 19m
Length of Day
12h 21m
Last Quarter, 43% of the Moon is Illuminated
Mar 24
Last Quarter
Mar 30
New
Apr 7
First Quarter
Apr 15
Full
Apr 22
Last Quarter

Hourly Weather History & Observations

Time (CDT) Temp. Windchill Dew Point Humidity Pressure Visibility Wind Dir Wind Speed Gust Speed Precip Events Conditions
12:53 AM 16.0 °F 3.6 °F 7.0 °F 68% 30.38 in 10.0 mi WNW 10.4 mph - N/A   Clear
1:53 AM 15.1 °F 3.3 °F 7.0 °F 70% 30.38 in 10.0 mi WNW 9.2 mph - N/A   Clear
2:53 AM 14.0 °F 2.9 °F 6.1 °F 71% 30.37 in 10.0 mi WNW 8.1 mph - N/A   Clear
3:53 AM 12.9 °F 3.8 °F 6.1 °F 74% 30.36 in 10.0 mi West 5.8 mph - N/A   Clear
4:53 AM 12.9 °F 3.8 °F 6.1 °F 74% 30.35 in 10.0 mi West 5.8 mph - N/A   Clear
5:53 AM 12.0 °F 2.7 °F 6.1 °F 77% 30.34 in 10.0 mi West 5.8 mph - N/A   Clear
6:53 AM 12.0 °F 1.5 °F 6.1 °F 77% 30.34 in 10.0 mi West 6.9 mph - N/A   Clear
7:53 AM 14.0 °F 2.9 °F 6.1 °F 71% 30.33 in 10.0 mi WSW 8.1 mph - N/A   Clear
8:53 AM 18.0 °F 6.9 °F 8.1 °F 65% 30.31 in 10.0 mi West 9.2 mph - N/A   Clear
9:53 AM 21.9 °F 11.0 °F 10.9 °F 63% 30.30 in 10.0 mi West 10.4 mph 18.4 mph N/A   Clear
10:53 AM 23.0 °F 10.1 °F 10.9 °F 60% 30.28 in 10.0 mi West 15.0 mph 21.9 mph N/A   Clear
11:53 AM 25.0 °F 13.6 °F 12.0 °F 58% 30.26 in 10.0 mi WSW 12.7 mph 24.2 mph N/A   Clear
12:53 PM 27.0 °F 15.2 °F 12.9 °F 56% 30.23 in 10.0 mi WNW 15.0 mph - N/A   Clear
1:53 PM 28.0 °F 15.3 °F 12.9 °F 53% 30.19 in 10.0 mi WNW 18.4 mph - N/A   Mostly Cloudy
2:53 PM 28.9 °F 17.7 °F 14.0 °F 54% 30.16 in 10.0 mi West 15.0 mph - N/A   Overcast
3:53 PM 30.9 °F 19.8 °F 16.0 °F 54% 30.13 in 10.0 mi WSW 16.1 mph 23.0 mph N/A   Overcast
4:53 PM 30.0 °F 20.0 °F 15.1 °F 54% 30.11 in 10.0 mi West 12.7 mph - N/A   Overcast
5:53 PM 30.0 °F 21.7 °F 17.1 °F 59% 30.09 in 10.0 mi West 9.2 mph - N/A   Overcast
6:53 PM 28.9 °F - 18.0 °F 64% 30.06 in 10.0 mi Calm Calm - N/A   Overcast
7:53 PM 27.0 °F 18.0 °F 21.9 °F 81% 30.05 in 2.5 mi NW 9.2 mph - 0.00 in Snow Light Snow
8:01 PM 26.1 °F 18.4 °F 24.1 °F 92% 30.01 in 1.0 mi NW 6.9 mph - 0.00 in Snow Light Snow
8:04 PM 26.1 °F 18.4 °F 24.1 °F 92% 30.01 in 0.8 mi NW 6.9 mph - 0.00 in Snow Light Snow
8:17 PM 26.1 °F 17.6 °F 24.1 °F 92% 30.01 in 0.8 mi North 8.1 mph - 0.02 in Snow Light Snow
8:28 PM 25.0 °F 16.3 °F 24.1 °F 96% 30.01 in 1.0 mi North 8.1 mph - 0.02 in Snow Light Snow
8:45 PM 25.0 °F 18.1 °F 23.0 °F 92% 30.01 in 0.8 mi NW 5.8 mph - 0.04 in Snow Light Snow
8:53 PM 25.0 °F 19.3 °F 23.0 °F 92% 30.04 in 0.8 mi NW 4.6 mph - 0.04 in Snow Light Snow
9:10 PM 25.0 °F 18.1 °F 23.0 °F 92% 30.00 in 1.2 mi West 5.8 mph - 0.01 in Snow Light Snow
9:13 PM 25.0 °F 16.3 °F 23.0 °F 92% 29.99 in 2.0 mi SW 8.1 mph - 0.01 in Snow Light Snow
9:23 PM 25.0 °F 18.1 °F 23.0 °F 92% 29.99 in 5.0 mi SW 5.8 mph - 0.01 in Snow Light Snow
9:31 PM 25.0 °F 18.1 °F 23.0 °F 92% 29.99 in 7.0 mi WSW 5.8 mph - 0.01 in   Overcast
9:53 PM 25.0 °F 16.3 °F 21.9 °F 88% 30.02 in 8.0 mi West 8.1 mph - 0.01 in   Overcast
10:53 PM 21.9 °F 12.5 °F 19.0 °F 89% 30.02 in 8.0 mi West 8.1 mph - N/A   Scattered Clouds
11:53 PM 18.0 °F 7.7 °F 16.0 °F 92% 30.02 in 7.0 mi West 8.1 mph - N/A   Clear